Regional Weather Roundup
Issued by NWS

Home | Current Version | Previous Version | Graphics & Text | Print | Product List | Glossary On
Versions: 1 2 3 4 5 6 7 8 9 10 11 12 13 14 15 16 17 18 19 20 21 22 23 24 25 26 27 28 29 30 31 32 33 34 35 36 37 38 39 40 41 42 43 44 45 46 47 48 49 50
000
ASUS43 KLMK 210610
RWRKY
KENTUCKY REGIONAL WEATHER ROUNDUP
NATIONAL WEATHER SERVICE LOUISVILLE KY
200 AM EDT TUE OCT 21 2014

NOTE "FAIR" INDICATES FEW OR NO CLOUDS BELOW 12,000 FEET
WITH NO SIGNIFICANT WEATHER AND/OR OBSTRUCTIONS TO VISIBILITY.

KYZ001>023-026-027-061>063-070>075-210700-
WESTERN AND SOUTH CENTRAL KENTUCKY

CITY           SKY/WX    TMP DP  RH WIND       PRES   REMARKS
PADUCAH        CLEAR     49  47  93 CALM      30.01S
HENDERSON      CLEAR    N/A N/A N/A SW3       29.99F
OWENSBORO      CLEAR     52  45  77 W3        30.00R
HOPKINSVILLE   PTCLDY    55  55  98 W5        30.01R
BOWLING GREEN  CLEAR     54  50  86 CALM      30.00R
GLASGOW        CLEAR     53  49  87 W3        29.98S
$$

KYZ024-025-028>034-038-045-046-053-210700-
NORTH CENTRAL KENTUCKY

CITY           SKY/WX    TMP DP  RH WIND       PRES   REMARKS
LOUISVILLE/SDF CLEAR     54  48  80 SW7       29.95R
LOUISVILLE/LOU CLEAR     51  50  96 NW6       29.96R
FORT KNOX      CLEAR     50  46  88 W6        29.95S
$$

KYZ035>037-039>044-047>052-055>060-089>105-210700-
NORTHEAST KENTUCKY

CITY           SKY/WX    TMP DP  RH WIND       PRES   REMARKS
LEXINGTON      CLEAR     54  49  83 SW7       29.94S
COVINGTON      PTCLDY    53  47  79 NW7       29.92R
FRANKFORT      CLEAR     52  49  89 CALM      29.93R
$$

KYZ054-064>069-076>088-106>120-210700-
SOUTHEAST KENTUCKY

CITY           SKY/WX    TMP DP  RH WIND       PRES   REMARKS
JACKSON        CLOUDY    51  47  86 VRB3      29.96S
LONDON         PTCLDY    53  47  79 SW3       29.97F
SOMERSET       CLEAR     48  48 100 CALM      29.98S
MIDDLESBORO    PTCLDY    45  45  99 CALM      29.99F
MONTICELLO     CLEAR     55  49  80 SW3       30.00S
$$



USA.gov is the U.S. government's official web portal to all federal, state and local government web resources and services.